COSMOS 1954

Satellite information

Favourite Embed

Satellite Type and Status

PAYLOADIN ORBIT

Key statistics

Satellite COSMOS 1954 at a glance.

Uptime

13690

Days in orbit

Revolutions

≈ 14.3

Per day

Orbit

LEO

Low Earth Orbit

Inclination

74.0

Latest

Satellite identification and parameters

Extended collection of information and parameters for COSMOS 1954.

Object identification

Identified? True

Debris? False

Object name: COSMOS 1954

International designator: 1988-053A

Object number (NORAD): 19256

Object ID (CCSDS): 19256

Country: COMMONWEALTH OF INDEPENDENT STATES (CIS)

Current information (Y/N): Y

RCS size: LARGE

Orbital parameters

Period: 100.354 minutes

Inclination: 74.0481 deg

SMA: 7153.483 km

Apoapsis: 785.777 km

Periapsis: 764.919 km

RAAN: 25.4417 deg

Eccentricy: 0.00145787

Argument of periapsis: 84.9837 deg

Mean anomaly: 275.2979 deg

Mean motion: 14.34915932 rev/day

Mean motion (dot): 0.00000233 rev/day2

B* drag term: 0.000091037637 1/REarth

Two-line elements (TLE)

Creation date: Dec. 12, 2025, 10:14 a.m.

Reference frame: TEME

Reference center: EARTH

Epoch: Dec. 12, 2025, 6:34 a.m. UTC

TLE line 0: 0 COSMOS 1954

TLE line 1: 1 19256U 88053A 25346.27416658 .00000233 00000-0 91038-4 0 9999

TLE line 2: 2 19256 74.0481 25.4417 0014579 84.9837 275.2979 14.34915932960183

Live tracking on map

Real-time ground track for satellite COSMOS 1954.

In-orbit conjunctions

A list of the most updated potential collisions computed for object COSMOS 1954.

Target Orbit TCA Probability of collision Miss distance Type
CZ-6A DEB LEO 2025-09-18 17:22:26 0.01052948 32.0 (m) DEBRIS
CZ-6A DEB LEO 2025-09-12 21:37:36 0.0001735962 63.0 (m) DEBRIS
NOAA 16 DEB SSO 2025-04-21 08:33:30 0.000167708 570.0 (m) DEBRIS
CZ-6A DEB LEO 2025-04-18 07:51:01 0.0004400544 163.0 (m) DEBRIS
CZ-6A DEB SSO 2025-02-02 03:59:53 0.0002329206 668.0 (m) DEBRIS

Associated space launch

Military communications satellite

COSMOS 1954 was lifted into orbit during the mission ‘Kosmos-3M | Strela-2M 45’, on board a Kosmos-3M space rocket.

The launch took place on June 21, 1988, 4:26 p.m. from 133/3 (133L).

For more information about the launch, click the button.

Launch to space Kosmos-3M | Strela-2M 45
Kosmos-3M | Strela-2M 45

Agency: N/A

Status: Launch Successful

Launch date: June 21, 1988, 4:26 p.m. UTC

Rocket: Kosmos-3M

Launch pad: 133/3 (133L)

Location: Plesetsk Cosmodrome, Russian Federation

...

Latest news about this satellite

There are no fresh news available about this satellite. Check back as we update our databases every day.


Newsletter sign-up

Weekly statistics, charts and insights to help you stay on top of the space industry.